Location: Los Gatos B&B
(42.6926°N, 77.0646°W)
Time: 21:37:45
(UTC-04:00)

SL-16 R/B - Visible Passes

Search period start: 28 September 2016 00:00
Search period end: 08 October 2016 00:00
Orbit: 840 x 850 km, 71.0° (Epoch: 28 September)

Date Brightness Start Highest point End Pass type
(mag) Time Alt. Az. Time Alt. Az. Time Alt. Az.
28 Sep 4.6 03:36:10 10° N 03:40:14 19° NE 03:44:15 10° E visible
28 Sep 2.1 05:19:17 10° NNW 05:24:59 75° WSW 05:30:37 10° SSE visible
28 Sep 3.5 20:12:02 10° SW 20:17:25 43° WNW 20:22:50 10° NNE visible
29 Sep 4.6 03:22:09 10° N 03:26:08 19° NE 03:30:05 10° E visible
29 Sep 2.1 05:05:13 10° NNW 05:10:55 78° WSW 05:16:34 10° SSE visible
29 Sep 3.4 19:57:56 10° SW 20:03:21 44° WNW 20:08:48 10° NNE visible
30 Sep 4.6 03:08:09 10° N 03:12:03 18° NE 03:15:55 10° E visible
30 Sep 2.0 04:51:09 10° NNW 04:56:52 80° WSW 05:02:31 10° SSE visible
30 Sep 3.9 06:39:10 10° W 06:39:58 10° W 06:40:46 10° WSW visible
30 Sep 3.4 19:43:50 10° SW 19:49:16 45° WNW 19:54:45 10° NNE visible
01 Oct 4.6 02:54:08 10° N 02:57:57 18° NE 03:01:44 10° E visible
01 Oct 2.0 04:37:05 10° NNW 04:42:48 83° WSW 04:48:27 10° SSE visible
01 Oct 3.9 06:24:37 10° W 06:25:56 11° W 06:27:15 10° WSW visible
01 Oct 3.4 19:29:44 10° SW 19:35:12 47° WNW 19:40:42 10° NNE visible
02 Oct 5.0 02:40:07 10° N 02:40:45 12° N 02:40:45 12° N visible
02 Oct 4.3 04:33:40 14° SSE 04:33:40 14° SSE 04:34:24 10° SSE visible
02 Oct 3.3 19:15:38 10° SW 19:21:08 48° WNW 19:26:39 10° NNE visible
03 Oct 3.3 19:01:33 10° SW 19:07:03 50° WNW 19:12:36 10° NNE visible
04 Oct 5.3 20:37:55 10° NW 20:38:32 10° NW 20:39:08 10° NNW visible
05 Oct 5.2 20:23:22 10° NW 20:24:26 10° NW 20:25:29 10° NNW visible
06 Oct 5.1 20:08:57 10° NW 20:10:19 11° NW 20:11:41 10° NNW visible
07 Oct 5.0 19:54:36 10° WNW 19:56:13 11° NW 19:57:50 10° NNW visible
